FW1273 Weather Reports


time (UTC)temp
F
wind
direction
speed
knots
gust
knots
rain 1hr
in
rain 24hr
in
rain mn
in
humidity
%
barometer
mb
20260509085219 54 212 3.5 12.2 0.00 0.00 0.00 87 1003.9
20260509084215 54 159 4.3 11.3 0.00 0.00 0.00 87 1003.9
20260509083718 54 162 4.3 10.4 0.00 0.00 0.00 87 1004.0
20260509083217 55 174 5.2 10.4 0.00 0.00 0.00 86 1004.0
20260509082716 55 178 4.3 10.4 0.00 0.00 0.00 86 1004.1
20260509082215 55 199 4.3 10.4 0.00 0.00 0.00 86 1004.1
20260509081715 55 178 5.2 11.3 0.00 0.00 0.00 86 1004.2
20260509081216 55 202 4.3 12.2 0.00 0.00 0.00 86 1004.2
20260509080715 55 249 4.3 12.2 0.00 0.00 0.00 86 1004.2
20260509080214 55 192 3.5 9.6 0.00 0.00 0.00 86 1004.3
20260509075212 55 173 4.3 10.4 0.00 0.00 0.00 86 1004.3
20260509074709 55 217 4.3 13.0 0.00 0.00 0.00 85 1004.4
20260509074211 55 185 4.3 13.0 0.00 0.00 0.00 85 1004.6
20260509073711 55 181 3.5 11.3 0.00 0.00 0.00 85 1004.5
20260509073210 55 182 4.3 13.0 0.00 0.00 0.00 85 1004.6
20260509072708 55 217 5.2 13.0 0.00 0.00 0.00 85 1004.7
20260509071709 55 142 5.2 13.9 0.00 0.00 0.00 84 1004.8
20260509071210 55 188 5.2 10.4 0.00 0.00 0.00 84 1005.0
20260509065654 55 188 6.1 17.4 0.00 0.00 0.00 84 1005.5
20260509065150 55 218 7.0 19.1 0.00 0.00 0.00 84 1005.6
20260509064643 54 200 4.3 19.1 0.00 0.00 0.00 85 1005.5
20260509064137 54 188 4.3 15.6 0.00 0.00 0.00 83 1005.7
20260509063632 54 217 4.3 15.6 0.00 0.00 0.00 83 1005.6
20260509063125 53 193 3.5 9.6 0.00 0.00 0.00 81 1005.6
20260509062618 53 223 4.3 9.6 0.00 0.00 0.00 81 1005.6
20260509061617 53 187 4.3 9.6 0.00 0.00 0.00 79 1005.7
20260509060617 52 183 3.5 10.4 0.00 0.00 0.00 77 1005.8
20260509060113 52 179 2.6 8.7 0.00 0.00 0.00 74 1005.9
20260509055614 52 156 2.6 8.7 0.00 0.00 0.00 73 1005.9
20260509054615 53 163 3.5 10.4 0.00 0.00 0.00 69 1005.9
20260509053614 53 169 4.3 10.4 0.00 0.00 0.00 65 1005.9
20260509053114 53 159 5.2 11.3 0.00 0.00 0.00 64 1006.0
20260509052613 53 166 4.3 11.3 0.00 0.00 0.00 62 1006.1
20260509052113 53 181 4.3 10.4 0.00 0.00 0.00 61 1006.1
20260509051613 53 166 3.5 7.8 0.00 0.00 0.00 59 1006.1
20260509051115 53 156 3.5 7.8 0.00 0.00 0.00 59 1006.1
20260509050609 53 194 3.5 9.6 0.00 0.00 0.00 59 1006.0
20260509050104 53 170 3.5 8.7 0.00 0.00 0.00 59 1006.1
20260509045557 53 166 2.6 8.7 0.00 0.00 0.00 59 1006.0
20260509045050 53 153 3.5 8.7 0.00 0.00 0.00 59 1006.0
20260509044546 53 182 2.6 8.7 0.00 0.00 0.00 59 1006.0
20260509044040 53 164 2.6 8.7 0.00 0.00 0.00 59 1006.0
20260509043533 53 139 2.6 7.8 0.00 0.00 0.00 59 1006.1
20260509043028 53 160 2.6 7.8 0.00 0.00 0.00 59 1006.1
20260509042015 53 175 2.6 8.7 0.00 0.00 0.00 59 1006.2
20260509041509 53 186 2.6 9.6 0.00 0.00 0.00 60 1006.2
20260509041005 52 183 2.6 9.6 0.00 0.00 0.00 60 1006.3
20260509040504 52 140 1.7 5.2 0.00 0.00 0.00 60 1006.3
20260509040017 52 147 1.7 5.2 0.00 0.00 0.00 60 1006.3
20260509035504 52 165 1.7 5.2 0.00 0.00 0.00 60 1006.4
20260509035002 52 183 1.7 5.2 0.00 0.00 0.00 60 1006.4
20260509034505 52 164 0.9 5.2 0.00 0.00 0.00 61 1006.5
20260509033501 51 172 0.9 4.3 0.00 0.00 0.00 60 1006.6
20260509033001 51 169 0.9 4.3 0.00 0.00 0.00 59 1006.6
20260509032500 51 169 0.0 4.3 0.00 0.00 0.00 58 1006.6
20260509031956 51 167 0.0 2.6 0.00 0.00 0.00 57 1006.6
20260509031502 51 167 0.0 2.6 0.00 0.00 0.00 56 1006.7
20260509030956 51 167 0.0 4.3 0.00 0.00 0.00 55 1006.8
20260509030457 51 167 0.0 4.3 0.00 0.00 0.00 55 1006.7
20260509025959 51 156 0.0 2.6 0.00 0.00 0.00 54 1006.8
20260509025456 51 150 0.0 1.7 0.00 0.00 0.00 52 1006.9
20260509024957 51 163 0.0 1.7 0.00 0.00 0.00 52 1007.0
20260509024456 51 165 0.0 3.5 0.00 0.00 0.00 51 1007.1
20260509023957 51 165 0.0 3.5 0.00 0.00 0.00 51 1007.1
20260509023454 51 164 0.0 4.3 0.00 0.00 0.00 50 1007.2
20260509022957 51 164 0.0 4.3 0.00 0.00 0.00 50 1007.2
20260509022452 51 155 0.0 1.7 0.00 0.00 0.00 49 1007.2
20260509021453 51 155 0.0 2.6 0.00 0.00 0.00 47 1007.2
20260509020452 51 151 0.0 1.7 0.00 0.00 0.00 46 1007.2
20260509015952 51 150 0.0 1.7 0.00 0.00 0.00 46 1007.2
20260509014951 51 150 0.0 0.9 0.00 0.00 0.00 46 1007.1
20260509014453 51 148 0.0 1.7 0.00 0.00 0.00 45 1007.2
20260509013948 52 148 0.0 1.7 0.00 0.00 0.00 46 1007.1
20260509012949 52 156 0.0 0.9 0.00 0.00 0.00 44 1007.2
20260509012449 53 156 0.0 0.0 0.00 0.00 0.00 44 1007.1
20260509011949 53 156 0.0 0.9 0.00 0.00 0.00 44 1007.1
20260509011450 53 156 0.0 0.9 0.00 0.00 0.00 43 1007.0
20260509010947 53 156 0.0 0.9 0.00 0.00 0.00 41 1007.1
20260509004949 56 155 0.0 0.9 0.00 0.00 0.00 41 1007.1
20260509004448 56 155 0.0 0.9 0.00 0.00 0.00 40 1007.1
20260509003445 58 155 0.0 0.9 0.00 0.00 0.00 38 1007.1
20260509002942 59 155 0.0 0.0 0.00 0.00 0.00 35 1007.3
20260509002442 60 155 0.0 0.9 0.00 0.00 0.00 35 1007.2
20260509001937 60 155 0.0 0.9 0.00 0.00 0.00 35 1007.2
20260509001439 61 155 0.0 0.9 0.00 0.00 0.00 32 1007.2
20260509000935 61 155 0.9 3.5 0.00 0.00 0.00 32 1007.2
20260509000434 61 155 0.9 3.5 0.00 0.00 0.00 32 1007.2
20260508235937 61 184 0.9 3.5 0.00 0.00 0.00 30 1007.3
20260508235433 62 184 0.9 4.3 0.00 0.00 0.00 29 1007.4
20260508234933 62 169 0.9 4.3 0.00 0.00 0.00 28 1007.5
20260508234429 62 220 0.9 1.7 0.00 0.00 0.00 28 1007.5
20260508233922 62 220 0.9 2.6 0.00 0.00 0.00 27 1007.6
20260508232911 62 220 0.9 2.6 0.00 0.00 0.00 27 1007.6
20260508231859 62 246 0.9 4.3 0.00 0.00 0.00 27 1007.8
20260508230847 62 254 1.7 5.2 0.00 0.00 0.00 27 1007.9
20260508230340 62 193 1.7 5.2 0.00 0.00 0.00 26 1007.9
20260508225835 62 191 1.7 5.2 0.00 0.00 0.00 28 1008.0
20260508225327 62 245 1.7 7.0 0.00 0.00 0.00 26 1008.1
20260508224819 62 210 1.7 7.0 0.00 0.00 0.00 28 1008.1
20260508223818 62 221 0.9 3.5 0.00 0.00 0.00 27 1008.0
20260508223320 62 241 1.7 4.3 0.00 0.00 0.00 31 1008.1
20260508222817 62 244 1.7 6.1 0.00 0.00 0.00 28 1008.1
20260508222316 61 251 1.7 7.0 0.00 0.00 0.00 29 1008.1
20260508221816 61 253 1.7 7.0 0.00 0.00 0.00 27 1008.2
20260508221314 61 242 2.6 7.0 0.00 0.00 0.00 28 1008.3
20260508215811 61 301 2.6 7.8 0.00 0.00 0.00 29 1008.5
20260508215312 62 286 1.7 6.1 0.00 0.00 0.00 28 1008.5
20260508214811 62 261 0.9 4.3 0.00 0.00 0.00 33 1008.4
20260508213810 61 215 2.6 7.0 0.00 0.00 0.00 29 1008.5
20260508212811 60 303 1.7 7.0 0.00 0.00 0.00 32 1008.6
20260508212310 61 267 1.7 7.0 0.00 0.00 0.00 32 1008.6
20260508211804 60 233 2.6 6.1 0.00 0.00 0.00 30 1008.7
20260508211257 60 229 2.6 7.0 0.00 0.00 0.00 35 1008.8
20260508210753 60 325 2.6 7.0 0.00 0.00 0.00 33 1008.8
20260508210248 60 290 3.5 7.8 0.00 0.00 0.00 30 1008.8
20260508205740 60 290 3.5 8.7 0.00 0.00 0.00 34 1008.8
20260508205235 60 325 2.6 8.7 0.00 0.00 0.00 32 1008.9
20260508204728 60 280 2.6 8.7 0.00 0.00 0.00 31 1009.0
20260508204222 60 270 3.5 8.7 0.00 0.00 0.00 32 1009.0
20260508203715 60 228 3.5 7.8 0.00 0.00 0.00 34 1009.0
20260508203209 59 238 4.3 8.7 0.00 0.00 0.00 35 1009.1
20260508202704 59 279 4.3 8.7 0.00 0.00 0.00 33 1009.1
20260508202157 59 282 4.3 9.6 0.00 0.00 0.00 37 1009.3
20260508201652 59 269 4.3 9.6 0.00 0.00 0.00 33 1009.3
20260508201147 59 276 3.5 8.7 0.00 0.00 0.00 34 1009.4
20260508200640 60 235 3.5 8.7 0.00 0.00 0.00 33 1009.4
20260508200135 60 311 3.5 8.7 0.00 0.00 0.00 35 1009.5
20260508195628 59 248 2.6 8.7 0.00 0.00 0.00 35 1009.6
20260508195123 59 227 3.5 9.6 0.00 0.00 0.00 36 1009.6
20260508194615 58 306 3.5 9.6 0.00 0.00 0.00 36 1009.7
20260508194111 58 286 4.3 12.2 0.00 0.00 0.00 38 1009.7
20260508193604 58 304 4.3 12.2 0.00 0.00 0.00 36 1009.8
20260508193100 58 296 3.5 9.6 0.00 0.00 0.00 35 1009.8
20260508192553 58 246 3.5 9.6 0.00 0.00 0.00 39 1009.8
20260508192048 58 246 4.3 9.6 0.00 0.00 0.00 40 1009.8
20260508191540 57 271 5.2 9.6 0.00 0.00 0.00 42 1009.9
20260508190022 58 292 4.3 10.4 0.00 0.00 0.00 45 1010.1
20260508185516 58 268 4.3 9.6 0.00 0.00 0.00 47 1010.2
20260508185011 57 299 5.2 9.6 0.00 0.00 0.00 47 1010.2
20260508184504 57 279 4.3 9.6 0.00 0.00 0.00 44 1010.3
20260508183958 58 277 4.3 9.6 0.00 0.00 0.00 50 1010.3
20260508183452 58 233 3.5 8.7 0.00 0.00 0.00 44 1010.3
20260508182947 58 312 3.5 8.7 0.00 0.00 0.00 45 1010.3
20260508182440 58 269 4.3 8.7 0.00 0.00 0.00 44 1010.3
20260508181936 58 295 3.5 10.4 0.00 0.00 0.00 40 1010.4
20260508181429 58 297 4.3 10.4 0.00 0.00 0.00 38 1010.4
20260508180922 57 260 5.2 9.6 0.00 0.00 0.00 37 1010.5
20260508175912 58 311 2.6 8.7 0.00 0.00 0.00 35 1010.6
20260508175405 58 249 2.6 7.0 0.00 0.00 0.00 44 1010.7
20260508174352 57 187 3.5 9.6 0.00 0.00 0.00 37 1010.8
20260508173847 58 294 3.5 9.6 0.00 0.00 0.00 36 1010.9
20260508173341 58 259 3.5 9.6 0.00 0.00 0.00 34 1011.0
20260508172835 58 276 2.6 8.7 0.00 0.00 0.00 36 1011.0
20260508172331 58 268 3.5 8.7 0.00 0.00 0.00 37 1011.1
20260508171832 58 271 3.5 7.0 0.00 0.00 0.00 35 1011.1
20260508171330 58 258 2.6 7.8 0.00 0.00 0.00 34 1011.1
20260508170833 58 240 3.5 7.8 0.00 0.00 0.00 38 1011.2
20260508165830 57 278 3.5 13.0 0.00 0.00 0.00 38 1011.2
20260508165331 57 274 4.3 10.4 0.00 0.00 0.00 37 1011.2
20260508164830 57 301 4.3 10.4 0.00 0.00 0.00 36 1011.3
20260508164330 57 293 4.3 9.6 0.00 0.00 0.00 37 1011.4
20260508163832 57 250 4.3 9.6 0.00 0.00 0.00 38 1011.6
20260508162831 58 240 3.5 9.6 0.00 0.00 0.00 35 1011.6
20260508161831 58 273 3.5 8.7 0.00 0.00 0.00 36 1011.7
20260508160831 58 262 3.5 8.7 0.00 0.00 0.00 35 1011.7
20260508160333 58 288 3.5 8.7 0.00 0.00 0.00 38 1011.6
20260508155831 58 267 2.6 7.8 0.00 0.00 0.00 35 1011.7
20260508155332 58 178 2.6 7.0 0.00 0.00 0.00 37 1011.7
20260508154329 57 202 3.5 7.8 0.00 0.00 0.00 36 1011.6
20260508153830 56 290 3.5 7.8 0.00 0.00 0.00 35 1011.6
20260508153330 56 229 3.5 8.7 0.00 0.00 0.00 36 1011.5
20260508152831 57 261 3.5 10.4 0.00 0.00 0.00 35 1011.6
20260508151330 57 281 2.6 10.4 0.00 0.00 0.00 45 1011.5
20260508150829 57 243 2.6 7.0 0.00 0.00 0.00 45 1011.7
20260508150328 57 275 3.5 7.8 0.00 0.00 0.00 40 1011.8
20260508145828 57 191 3.5 8.7 0.00 0.00 0.00 42 1011.8
20260508145328 57 219 3.5 10.4 0.00 0.00 0.00 43 1011.9
20260508144822 56 212 2.6 10.4 0.00 0.00 0.00 44 1012.0
20260508143818 56 193 2.6 7.0 0.00 0.00 0.00 51 1012.0
20260508143318 56 302 2.6 4.3 0.00 0.00 0.00 57 1011.9
20260508142317 56 243 0.9 6.1 0.00 0.00 0.00 58 1012.0
20260508141817 56 201 1.7 5.2 0.00 0.00 0.00 60 1011.9
20260508141316 55 202 1.7 5.2 0.00 0.00 0.00 61 1012.0
20260508135313 54 171 2.6 6.1 0.00 0.00 0.00 68 1012.2
20260508134314 53 143 2.6 7.0 0.00 0.00 0.00 68 1012.1
20260508133814 53 178 2.6 5.2 0.00 0.00 0.00 71 1012.2
20260508133308 52 188 2.6 5.2 0.00 0.00 0.00 70 1012.2
20260508132805 52 175 2.6 5.2 0.00 0.00 0.00 71 1012.2
20260508132306 52 189 2.6 5.2 0.00 0.00 0.00 74 1012.1
20260508131806 51 178 2.6 5.2 0.00 0.00 0.00 74 1012.3
20260508131304 51 184 3.5 7.0 0.00 0.00 0.00 75 1012.3
20260508130807 51 171 2.6 7.0 0.00 0.00 0.00 74 1012.4
20260508125804 51 175 1.7 4.3 0.00 0.00 0.00 76 1012.5
20260508125306 51 180 1.7 3.5 0.00 0.00 0.00 76 1012.4
20260508124804 50 169 0.9 3.5 0.00 0.00 0.00 77 1012.4
20260508124307 50 169 0.9 3.5 0.00 0.00 0.00 77 1012.4
20260508123802 49 169 0.9 3.5 0.00 0.00 0.00 77 1012.4
20260508123301 48 169 0.0 1.7 0.00 0.00 0.00 79 1012.4
20260508122301 46 169 1.7 3.5 0.00 0.00 0.00 80 1012.4
20260508121800 45 169 1.7 4.3 0.00 0.00 0.00 81 1012.4
20260508121304 44 169 1.7 4.3 0.00 0.00 0.00 81 1012.3
20260508120800 44 183 1.7 4.3 0.00 0.00 0.00 82 1012.2
20260508120259 43 223 0.9 2.6 0.00 0.00 0.00 83 1012.1
20260508115801 42 245 0.0 2.6 0.00 0.00 0.00 85 1012.0
20260508115257 41 285 0.0 0.0 0.00 0.00 0.00 86 1011.9
20260508114257 39 285 0.0 0.0 0.00 0.00 0.00 88 1011.9
20260508113758 38 285 0.0 0.0 0.00 0.00 0.00 89 1011.8
20260508113256 38 285 0.0 0.0 0.00 0.00 0.00 90 1011.8
20260508112759 37 285 0.0 0.0 0.00 0.00 0.00 90 1011.8
20260508112257 36 285 0.0 0.0 0.00 0.00 0.00 90 1011.8
20260508111757 36 285 0.0 0.0 0.00 0.00 0.00 90 1011.7
20260508111258 35 285 0.0 0.0 0.00 0.00 0.00 89 1011.7
20260508110757 35 285 0.0 0.0 0.00 0.00 0.00 89 1011.7
20260508110258 35 285 0.0 0.0 0.00 0.00 0.00 89 1011.8
20260508104756 35 285 0.0 0.0 0.00 0.00 0.00 88 1011.7
20260508104258 35 285 0.0 0.0 0.00 0.00 0.00 88 1011.8
20260508103756 35 285 0.0 0.0 0.00 0.00 0.00 87 1011.8
20260508102756 35 285 0.0 0.0 0.00 0.00 0.00 87 1011.5
20260508102257 35 285 0.0 0.0 0.00 0.00 0.00 87 1011.4
20260508101756 35 285 0.0 0.0 0.00 0.00 0.00 86 1011.5
20260508101257 35 285 0.0 0.0 0.00 0.00 0.00 86 1011.4
20260508100756 36 285 0.0 0.0 0.00 0.00 0.00 86 1011.5
20260508100257 36 285 0.0 0.0 0.00 0.00 0.00 86 1011.5
20260508095257 36 285 0.0 0.0 0.00 0.00 0.00 84 1011.4
20260508094256 37 285 0.0 0.0 0.00 0.00 0.00 83 1011.5
20260508093756 37 285 0.0 0.0 0.00 0.00 0.00 83 1011.6
20260508092752 37 285 0.0 0.0 0.00 0.00 0.00 83 1011.6
20260508092246 37 285 0.0 0.0 0.00 0.00 0.00 83 1011.6
20260508091243 37 285 0.0 0.0 0.00 0.00 0.00 84 1011.6
20260508090745 37 285 0.0 0.0 0.00 0.00 0.00 84 1011.7